Location: Alta
(39.2070°N, 120.8111°W)
Time: 02:42:56
(UTC+00:00)

ISS - Visible Passes

Search period start: 06 March 2026 00:00
Search period end: 16 March 2026 00:00
Orbit: 416 x 427 km, 51.6° (Epoch: 5 March)

Date Brightness Start Highest point End Pass type
(mag) Time Alt. Az. Time Alt. Az. Time Alt. Az.
6 Mar -0.7 12:06:20 13° ESE 12:06:20 13° ESE 12:06:45 10° ESE visible
6 Mar -1.7 13:39:23 13° WSW 13:39:53 13° SW 13:41:29 10° SSW visible
7 Mar -1.3 12:55:14 13° S 12:55:14 13° S 12:55:45 10° S visible
9 Mar -1.3 03:10:52 10° SSE 03:11:08 11° SSE 03:11:08 11° SSE visible
10 Mar -2.0 03:58:32 10° SW 04:00:12 26° SW 04:00:12 26° SW visible
11 Mar -3.2 03:11:45 10° SSW 03:14:57 40° SE 03:16:01 30° E visible
11 Mar -0.2 04:48:57 10° W 04:49:04 11° W 04:49:04 11° W visible
12 Mar -2.5 04:01:31 10° WSW 04:04:41 38° NNW 04:04:41 38° NNW visible
13 Mar -3.3 03:14:14 10° WSW 03:17:36 63° NW 03:20:08 16° NE visible
13 Mar -0.2 04:52:55 10° NW 04:53:09 11° NW 04:53:09 11° NW visible
14 Mar -1.4 04:05:10 10° WNW 04:07:41 19° NNW 04:08:25 18° N visible
15 Mar -1.7 03:17:31 10° W 03:20:25 25° NNW 03:23:20 10° NNE visible
